Zurück zum Katalog

DELTA 1 DEB

AktivPO
NORAD 26843·DEBRIS·🇺🇸 United States

Gestartet Jun 12, 1975 von Vandenberg Space Force Base

Loading…

Nächste Überflüge (nächste 24 Stunden)

TLE

AktuellSource: Space-Track

Epoche: Sep 14, 2026, 02:27 UTC

1 26843U 75052KX  26257.10272196  .00000047  00000-0  20353-3 0  9999
2 26843  99.7016 113.8671 0115949 236.4667 276.8686 13.22353107550636

Verfolge DELTA 1 DEB in Echtzeit mit AllMySat

Download on the App Store